[[{"header":{"parameterUnit":"m.s-1","parameterCategory":1,"la1":30.2991,"la2":30.254,"lo1":-89.0895,"lo2":-89.0444,"dy":0.0017,"dx":0.0017,"nx":28,"ny":28,"refTime":"2025-12-12T03:00:00:Z","depth":0,"parameterNumber":2,"parameterNumberName":"U-component_of_WINDS"},"data":[0,0,0,0,0,0,0,0,0,0,0,0,0,0,0,0,0,0,0,0,0,0,0,0,0,0,0,0,0,0,0,0,0,0,0,0,0,0,0,0,0,0,0,0,0,0,0,0,0,0,0,0,0,0,0,0,0,0,-2.0664,-2.0665,0,-2.0674,-2.0674,-2.0674,-2.0612,-2.061,-2.0608,-2.0607,-2.0617,-2.0619,-2.0621,0,0,0,0,0,0,0,0,0,0,0,0,0,-2.0596,-2.0597,-2.0664,-2.0665,-2.0665,-2.0674,-2.0674,-2.0674,-2.0612,-2.061,-2.0608,-2.0606,-2.0617,-2.0619,-2.0621,0,0,0,0,0,0,0,0,0,0,0,0,0,-2.0617,-2.0598,-2.0664,-2.0635,-2.0632,-2.0674,-2.0674,-2.0674,-2.0613,-2.061,-2.0607,-2.0605,-2.0616,-2.0619,-2.0621,-2.0692,0,0,-2.063,-2.0632,0,0,0,0,0,0,0,0,-2.0616,-2.062,-2.0639,-2.0637,-2.0634,-2.0639,-2.0653,-2.068,-2.0613,-2.062,-2.0607,-2.0604,-2.0627,-2.0628,-2.0636,-2.0693,-2.0693,-2.0631,-2.0632,-2.0634,-2.0634,0,0,0,0,0,0,0,-2.0615,-2.0619,-2.0668,-2.0639,-2.0636,-2.0622,-2.0622,-2.0658,-2.0638,-2.0619,-2.0615,-2.0617,-2.0625,-2.0633,-2.0636,-2.0693,-2.063,-2.0633,-2.0635,-2.0636,-2.081,-2.0813,0,0,0,0,0,0,-2.0617,-2.0618,-2.0668,-2.0668,-2.0618,-2.0625,-2.0626,-2.064,-2.0637,-2.0635,-2.0619,-2.0614,-2.063,-2.0633,-2.0636,-2.0719,-2.0634,-2.0636,-2.0638,-2.0807,-2.0811,-2.0814,0,0,0,0,0,0,-2.0616,-2.0622,-2.0667,-2.0642,-2.0647,-2.0629,-2.0646,-2.0642,-2.065,-2.0637,-2.0634,-2.0631,-2.0628,-2.0632,-2.0679,-2.0718,-2.0638,-2.064,-2.0804,-2.0808,-2.0812,-2.0885,0,0,0,0,0,0,-2.0614,-2.0622,-2.0648,-2.0643,-2.0648,-2.0709,-2.0649,-2.0644,-2.0655,-2.0648,-2.0648,-2.0645,-2.0626,-2.0675,-2.0682,-2.0721,-2.0642,-2.08,-2.0806,-2.0811,-2.0879,-2.0891,-2.0902,0,0,0,0,0,-2.0612,-2.0667,-2.0649,-2.0655,-2.068,-2.0712,-2.0715,-2.0691,-2.0659,-2.0685,-2.0677,-2.0645,-2.0714,-2.068,-2.0687,-2.0728,-2.0798,-2.0804,-2.0811,-2.0874,-2.0889,-2.0901,0,0,0,0,0,0,-2.0676,-2.0666,-2.0646,-2.0701,-2.0708,-2.0701,-2.0733,-2.0708,-2.0724,-2.0717,-2.0688,-2.0688,-2.0741,-2.0739,-2.0702,-2.0797,-2.075,-2.0758,-2.0795,-2.081,-2.0821,-2.0819,-2.0645,0,0,0,0,0,-2.0697,-2.0723,-2.0713,-2.0763,-2.0768,-2.0751,-2.0763,-2.0745,-2.0751,-2.0753,-2.0748,-2.0756,-2.0779,-2.0795,-2.0815,-2.088,-2.0879,-2.0911,-2.0923,-2.0932,-2.0939,-2.0974,-2.0988,-2.0835,-2.0835,-2.0835,0,0,-2.074,-2.0738,-2.0756,-2.0776,-2.0779,-2.0807,-2.0753,-2.0785,-2.0806,-2.0758,-2.0801,-2.0799,-2.0806,-2.0862,-2.0887,-2.0862,-2.0982,-2.094,-2.0948,-2.095,-2.0982,-2.0997,-2.101,-2.084,-2.0839,-2.0838,0,0,-2.0832,-2.0833,-2.0875,-2.088,-2.0885,-2.0874,-2.0885,-2.0882,-2.0879,-2.0923,-2.0888,-2.0914,-2.0954,-2.096,-2.0969,-2.1068,-2.1039,-2.1075,-2.1134,-2.1169,-2.1181,-2.1191,-2.1226,-2.1239,-2.1083,-2.1083,-2.1083,0,-2.0884,-2.0925,-2.09,-2.0935,-2.0946,-2.0905,-2.0948,-2.0954,-2.0967,-2.0975,-2.0949,-2.1,-2.1001,-2.1059,-2.1083,-2.1092,-2.1103,-2.1074,-2.1181,-2.1191,-2.1201,-2.1234,-2.1247,-2.1087,-2.1087,-2.1086,-2.1086,0,-2.0989,-2.1018,-2.1052,-2.1065,-2.108,-2.1119,-2.1101,-2.112,-2.1102,-2.1094,-2.114,-2.1141,-2.1162,-2.1175,-2.1157,-2.1231,-2.1216,-2.1186,-2.1137,-2.122,-2.1251,-2.1263,-2.1093,-2.1092,-2.1091,-2.109,0,0,-2.1118,-2.112,-2.1133,-2.1139,-2.1144,-2.1166,-2.1205,-2.1225,-2.1241,-2.1252,-2.1284,-2.1321,-2.1294,-2.1304,-2.1287,-2.1318,-2.1397,-2.1284,-2.1284,-2.1304,-2.1479,-2.15,-2.1515,-2.1379,-2.1381,-2.1383,-2.1478,0,-2.1208,-2.1272,-2.1253,-2.1318,-2.1345,-2.1309,-2.1342,-2.135,-2.1345,-2.1368,-2.1362,-2.1389,-2.1351,-2.1357,-2.1386,-2.1381,-2.1431,-2.1374,-2.1408,-2.141,-2.1406,-2.1531,-2.1553,-2.1642,-2.149,-2.1492,-2.1493,0,-2.132,-2.1336,-2.1403,-2.1405,-2.1416,-2.1446,-2.1465,-2.1487,-2.1496,-2.149,-2.1503,-2.1481,-2.152,-2.1474,-2.1528,-2.149,-2.1504,-2.1504,-2.1507,-2.1507,-2.1455,-2.1534,-2.1669,-2.1682,-2.1512,-2.151,-2.1509,0,-2.1406,-2.1445,-2.1491,-2.1497,-2.1501,-2.1524,-2.1526,-2.1533,-2.1547,-2.1564,-2.1573,-2.1595,-2.1606,-2.1624,-2.1609,-2.1577,-2.1666,-2.1618,-2.1662,-2.1663,-2.168,-2.1679,-2.1819,-2.1692,-2.1692,-2.1692,-2.1692,0,-2.1507,-2.155,-2.153,-2.1558,-2.1606,-2.1585,-2.1633,-2.1632,-2.1638,-2.1666,-2.1637,-2.1665,-2.1644,-2.167,-2.1659,-2.1706,-2.1711,-2.1708,-2.1704,-2.171,-2.171,-2.1716,-2.1709,-2.1695,-2.1695,-2.1694,-2.1693,0,-2.161,-2.1599,-2.1646,-2.1647,-2.1649,-2.1684,-2.1685,-2.1711,-2.1705,-2.1741,-2.1749,-2.174,-2.1769,-2.1757,-2.1788,-2.178,-2.184,-2.1829,-2.1837,-2.1833,-2.1878,-2.1874,-2.2026,-2.2044,-2.1907,-2.1909,-2.191,0,-2.1674,-2.1706,-2.1711,-2.1728,-2.1733,-2.176,-2.1775,-2.1757,-2.1774,-2.1788,-2.1814,-2.1841,-2.1861,-2.191,-2.1907,-2.1931,-2.1919,-2.1971,-2.1922,-2.1927,-2.1919,-2.1917,-2.192,-2.198,-2.1981,-2.1983,-2.1984,0,-2.1789,-2.1782,-2.1804,-2.1826,-2.1844,-2.186,-2.1874,-2.189,-2.1873,-2.1894,-2.1923,-2.1939,-2.1972,-2.1999,-2.2022,-2.2026,-2.2002,-2.2,-2.2011,-2.2016,-2.2019,-2.2017,-2.1862,-2.1996,-2.1994,-2.1994,-2.1993,-2.1992,-2.1873,-2.1901,-2.1909,-2.1935,-2.1944,-2.1958,-2.1983,-2.1982,-2.2006,-2.2031,-2.202,-2.2054,-2.2065,-2.2093,-2.21,-2.2128,-2.2108,-2.2125,-2.2128,-2.2132,-2.2138,-2.2016,-2.2132,-2.2132,-2.2132,-2.2132,-2.2131,0,-2.1985,-2.199,-2.2015,-2.2035,-2.2056,-2.2034,-2.2049,-2.2068,-2.2099,-2.2111,-2.2132,-2.2168,-2.2195,-2.2195,-2.2221,-2.2244,-2.2234,-2.2251,-2.2248,-2.225,-2.2155,-2.2142,-2.2259,-2.2259,-2.2258,-2.2258,-2.2258,-2.2258,-2.2046,-2.2091,-2.2087,-2.2137,-2.2141,-2.2175,-2.2185,-2.2199,-2.2208,-2.2249,-2.2272,-2.2272,-2.228,-2.2307,-2.2331,-2.2331,-2.2341,-2.2362,-2.2358,-2.2269,-2.2256,-2.2244,-2.2232,-2.2365,-2.2365,-2.245,-2.2451,-2.2452]},{"header":{"parameterUnit":"m.s-1","parameterCategory":1,"la1":30.2991,"la2":30.254,"lo1":-89.0895,"lo2":-89.0444,"dy":0.0017,"dx":0.0017,"nx":28,"ny":28,"refTime":"2025-12-12T03:00:00:Z","depth":0,"parameterNumber":3,"parameterNumberName":"V-component_of_WINDS"},"data":[0,0,0,0,0,0,0,0,0,0,0,0,0,0,0,0,0,0,0,0,0,0,0,0,0,0,0,0,0,0,0,0,0,0,0,0,0,0,0,0,0,0,0,0,0,0,0,0,0,0,0,0,0,0,0,0,0,0,1.7976,1.7976,0,1.8008,1.8009,1.8009,1.8079,1.808,1.8082,1.8083,1.811,1.811,1.8109,0,0,0,0,0,0,0,0,0,0,0,0,0,1.7969,1.7969,1.7976,1.7976,1.7977,1.8008,1.8009,1.8009,1.8079,1.808,1.8082,1.8084,1.8111,1.811,1.8109,0,0,0,0,0,0,0,0,0,0,0,0,0,1.7984,1.7969,1.7976,1.8015,1.8019,1.8008,1.8009,1.8009,1.8078,1.808,1.8083,1.8085,1.8111,1.811,1.8109,1.8061,0,0,1.8106,1.8106,0,0,0,0,0,0,0,0,1.7983,1.7984,1.8009,1.8012,1.8017,1.8042,1.8017,1.8026,1.8078,1.8056,1.8083,1.8086,1.8085,1.8087,1.8088,1.8062,1.8063,1.8106,1.8106,1.8105,1.8105,0,0,0,0,0,0,0,1.7982,1.7983,1.7988,1.8009,1.8014,1.803,1.8034,1.8019,1.8058,1.8058,1.8063,1.8066,1.8088,1.8089,1.8089,1.8064,1.8106,1.8106,1.8105,1.8105,1.8002,1.8,0,0,0,0,0,0,1.7976,1.7982,1.7987,1.7989,1.8005,1.8028,1.8033,1.8031,1.8058,1.8065,1.8064,1.8069,1.8089,1.809,1.809,1.8037,1.8105,1.8105,1.8104,1.8004,1.8001,1.7999,0,0,0,0,0,0,1.7975,1.7976,1.7986,1.7987,1.799,1.8026,1.8024,1.8031,1.8032,1.8063,1.807,1.8058,1.8091,1.8092,1.8069,1.8039,1.8104,1.8103,1.8006,1.8003,1.8,1.7929,0,0,0,0,0,0,1.7975,1.7975,1.7958,1.7986,1.7989,1.7965,1.8022,1.803,1.8031,1.8038,1.8059,1.8065,1.8093,1.807,1.8068,1.8039,1.8103,1.8009,1.8005,1.8001,1.7934,1.7923,1.7914,0,0,0,0,0,1.7974,1.7935,1.7957,1.7957,1.7969,1.7963,1.7964,1.7999,1.8028,1.8011,1.8031,1.8064,1.8043,1.8067,1.8065,1.8035,1.8011,1.8006,1.8001,1.7938,1.7925,1.7915,0,0,0,0,0,0,1.7899,1.7939,1.7964,1.7932,1.7944,1.7975,1.7953,1.7984,1.7986,1.7992,1.8033,1.8037,1.8008,1.802,1.8046,1.7991,1.8032,1.8027,1.7985,1.7973,1.7963,1.7961,1.8102,0,0,0,0,0,1.7879,1.7873,1.7907,1.7876,1.7881,1.7916,1.7915,1.7941,1.7953,1.7958,1.7977,1.7986,1.7982,1.7978,1.7976,1.7936,1.7942,1.7915,1.7905,1.7897,1.7892,1.7873,1.7862,1.7983,1.7983,1.7983,0,0,1.7837,1.7858,1.7851,1.7861,1.7874,1.7865,1.7919,1.7907,1.7901,1.7955,1.7936,1.795,1.7963,1.7932,1.7919,1.7941,1.786,1.7891,1.7884,1.7883,1.7867,1.7855,1.7845,1.7979,1.798,1.798,0,0,1.7756,1.7772,1.7748,1.776,1.7779,1.7803,1.7797,1.7824,1.7836,1.7818,1.7859,1.7851,1.7843,1.7852,1.7855,1.778,1.7811,1.7778,1.7727,1.7708,1.7699,1.769,1.7664,1.7654,1.7772,1.7772,1.7772,0,1.7701,1.7691,1.7732,1.7718,1.7722,1.7774,1.775,1.7759,1.7774,1.7775,1.78,1.7792,1.7804,1.7777,1.7759,1.7759,1.7754,1.7775,1.7697,1.7689,1.7682,1.7658,1.7648,1.7768,1.7769,1.7769,1.7769,0,1.7623,1.7616,1.7594,1.7612,1.7613,1.7594,1.7631,1.7627,1.7653,1.7674,1.7655,1.7673,1.7676,1.7671,1.7695,1.7647,1.766,1.769,1.7732,1.7666,1.7644,1.7635,1.7762,1.7764,1.7765,1.7766,0,0,1.7494,1.7536,1.7528,1.7537,1.7563,1.7557,1.754,1.7546,1.7542,1.7552,1.7539,1.7532,1.7561,1.7564,1.759,1.7574,1.7515,1.7606,1.7607,1.7589,1.7464,1.7441,1.743,1.7536,1.7534,1.7533,1.7463,0,1.7419,1.7396,1.7433,1.74,1.7394,1.7444,1.743,1.7444,1.7464,1.7461,1.7482,1.7477,1.7515,1.7518,1.7504,1.7525,1.749,1.753,1.7523,1.7523,1.7519,1.7418,1.7394,1.7327,1.7455,1.7453,1.7452,0,1.7328,1.7337,1.7304,1.7334,1.7333,1.732,1.7329,1.7325,1.7342,1.7358,1.7363,1.7395,1.7381,1.7422,1.7403,1.7429,1.7429,1.7439,1.7437,1.7438,1.7483,1.7416,1.7306,1.7296,1.7439,1.744,1.7441,0,1.7238,1.7241,1.7223,1.7229,1.7263,1.7253,1.7266,1.7286,1.7287,1.7294,1.7296,1.73,1.7302,1.7305,1.7337,1.7364,1.7314,1.7358,1.7326,1.7325,1.7312,1.7313,1.7201,1.7312,1.7312,1.7312,1.7312,0,1.7151,1.7129,1.7184,1.7172,1.7149,1.7192,1.7168,1.7186,1.7203,1.7196,1.7238,1.723,1.7273,1.7269,1.7294,1.7275,1.7275,1.7287,1.7294,1.7283,1.7282,1.7283,1.7289,1.7309,1.731,1.7311,1.7311,0,1.7046,1.7082,1.7065,1.71,1.7108,1.709,1.7119,1.711,1.7134,1.7123,1.7123,1.716,1.7158,1.7191,1.7194,1.7211,1.718,1.7195,1.7175,1.718,1.7147,1.7149,1.7032,1.7019,1.7137,1.7136,1.7135,0,1.6988,1.6973,1.7007,1.7007,1.7019,1.7016,1.7019,1.7061,1.7062,1.7081,1.7069,1.7071,1.7075,1.7069,1.7095,1.7098,1.7114,1.7073,1.7114,1.7105,1.7114,1.7114,1.7113,1.7063,1.7062,1.7061,1.706,0,1.6882,1.6901,1.6904,1.6914,1.6917,1.6926,1.6938,1.6934,1.698,1.6978,1.6978,1.6981,1.6987,1.6988,1.6997,1.701,1.7042,1.7047,1.704,1.7028,1.7018,1.7024,1.7152,1.7049,1.705,1.7051,1.7051,1.7052,1.6799,1.6789,1.6812,1.6815,1.6829,1.6839,1.6833,1.6857,1.6858,1.6868,1.6892,1.6888,1.6906,1.6922,1.6932,1.6928,1.6948,1.6938,1.6935,1.6932,1.6926,1.7019,1.693,1.693,1.6931,1.6931,1.6931,0,1.6695,1.6713,1.6716,1.6732,1.6734,1.6768,1.6783,1.6782,1.6779,1.6794,1.6798,1.6799,1.6801,1.6828,1.6833,1.6826,1.6841,1.6825,1.6826,1.6829,1.6908,1.6914,1.6813,1.6813,1.6813,1.6814,1.6814,1.6814,1.6641,1.6626,1.6648,1.6641,1.6659,1.6657,1.6663,1.6673,1.6686,1.6686,1.6689,1.6707,1.6728,1.6735,1.6739,1.6746,1.6746,1.6726,1.6739,1.6812,1.6823,1.6834,1.684,1.6726,1.6726,1.6661,1.666,1.666]}]]